Wind_Speed
100 100 100 100 101 101 102 102 102 103 103 103 103 104 104 104 105 105 105 105 106 105 105 105 104 104 104 104 103 103 102 101 100 100 99 98 97 96 95 94 93 92 91 90 90 90 90 90 90 90 90 90 90 91 91 91 91 91 90 90 89 88 87 87 85 84 82 81 79 77 75 73 72 70 68 66 65 64 63 61 60 59 57 55 53 52
100 100 100 100 101 101 102 102 102 102 103 103 103 103 104 104 105 105 105 106 106 106 106 105 105 105 105 104 104 104 103 102 101 100 100 99 98 97 97 96 95 94 93 92 91 91 91 91 91 91 91 92 91 91 91 91 91 91 91 91 90 89 88 88 87 86 84 83 81 79 77 75 73 71 69 68 66 65 64 63 61 60 59 57 55 53
100 100 101 101 101 101 102 102 102 102 102 102 103 103 103 104 104 105 105 106 106 106 106 106 105 105 105 105 105 104 104 103 102 101 100 100 99 99 98 97 96 95 95 94 93 93 92 92 92 92 92 92 92 92 92 92 92 91 91 91 90 90 89 88 87 87 86 84 83 81 79 77 75 73 71 69 67 66 65 63 62 61 60 58 56 55
101 102 102 102 102 102 102 102 102 102 102 102 102 103 103 104 104 105 105 105 106 106 106 106 106 106 106 106 105 105 105 104 103 103 102 101 100 100 99 98 98 97 97 96 95 94 94 94 93 93 93 93 93 93 92 92 92 91 91 91 90 90 89 88 87 87 86 85 84 82 81 79 77 75 72 70 68 67 65 64 63 61 60 59 57 56
103 103 103 103 103 103 104 103 103 103 103 103 103 103 104 104 104 105 105 105 105 106 106 106 106 106 106 106 106 106 106 105 105 104 103 103 102 101 100 100 99 98 98 97 97 96 95 95 94 94 94 93 93 93 93 92 92 91 91 90 90 89 88 88 87 87 86 85 84 83 82 80 78 76 74 71 69 67 66 64 63 62 61 59 58 57
104 104 104 104 105 105 105 105 104 104 104 104 104 104 105 105 105 105 105 105 106 106 106 106 107 107 107 107 107 107 107 106 106 106 105 104 104 103 102 101 100 99 98 98 97 97 96 95 95 94 94 93 93 93 92 92 92 91 90 90 89 88 88 87 87 86 85 85 84 83 82 80 79 77 75 73 70 68 66 65 64 63 62 60 59 58
105 105 105 105 106 106 106 106 105 105 105 105 105 106 106 106 106 106 106 106 106 106 107 107 107 107 108 108 108 108 108 108 107 107 106 106 105 104 103 102 101 100 99 98 98 97 96 96 95 94 93 93 93 92 92 92 91 91 90 89 89 88 87 86 86 85 85 84 84 83 82 80 79 77 76 74 72 70 68 67 66 65 63 62 61 60
105 105 105 106 106 106 106 106 106 106 106 106 106 106 106 107 107 107 107 107 107 107 107 107 107 108 108 108 109 109 109 108 108 108 107 107 106 106 104 103 102 100 99 98 97 97 96 95 95 94 93 92 92 91 91 91 91 91 90 89 88 87 87 86 85 85 84 84 83 82 82 80 79 78 76 75 73 72 70 69 68 67 66 64 63 62
105 105 106 106 106 106 107 107 106 106 106 107 107 107 107 107 107 107 107 107 107 107 107 107 108 108 108 109 109 109 109 109 108 108 108 108 107 106 105 104 102 101 99 98 97 96 96 95 94 94 93 92 91 91 90 90 90 90 89 89 88 87 86 86 85 84 84 83 83 82 82 81 79 78 77 76 75 74 72 71 70 69 68 67 65 64
104 105 105 105 106 106 106 107 107 106 107 107 107 107 107 107 107 107 107 108 107 107 107 107 108 108 108 108 108 109 108 108 108 108 108 108 107 107 106 104 103 101 100 98 97 96 95 95 94 93 93 92 91 90 90 89 89 89 89 88 88 87 86 86 85 84 84 83 83 82 82 81 80 79 78 77 76 75 74 73 72 71 70 69 68 66
103 104 104 105 105 105 106 106 106 106 106 106 106 106 106 106 107 107 107 107 107 107 107 107 107 107 107 108 108 108 107 107 107 107 107 107 107 106 106 105 103 102 100 98 97 96 95 95 94 93 92 92 91 90 89 89 89 89 89 88 87 87 86 86 85 85 84 83 82 82 82 81 81 80 79 78 77 77 76 74 73 72 71 70 69 68
102 103 103 104 104 105 105 105 105 106 106 106 106 106 106 106 106 106 106 107 107 106 106 106 106 106 106 107 107 107 106 106 106 106 106 106 106 106 105 104 103 102 100 99 97 96 95 94 94 93 92 92 91 90 89 88 88 88 88 88 87 87 86 86 86 85 84 83 82 82 81 81 81 80 79 78 78 77 76 75 74 73 72 72 71 70
102 102 103 103 104 104 104 104 105 105 105 105 105 105 105 105 105 105 105 105 106 106 106 105 105 105 105 105 105 105 105 105 105 105 105 105 105 105 105 104 103 102 101 99 97 96 95 94 93 93 92 91 91 90 89 89 88 88 88 87 87 86 86 86 86 85 84 83 82 81 81 80 80 80 79 78 78 77 76 75 74 74 73 72 71 70
101 102 102 103 103 103 103 104 104 104 104 104 105 105 105 104 104 104 104 104 104 104 104 105 105 105 104 104 104 104 103 103 103 103 103 104 104 104 103 103 103 102 101 100 98 96 95 94 93 92 92 91 91 90 89 89 88 88 88 87 87 87 86 86 86 85 84 83 82 81 80 80 79 79 79 78 78 77 76 76 75 74 73 73 72 71
101 101 102 102 103 103 103 103 103 104 104 104 104 104 104 104 104 104 104 103 103 103 103 103 104 104 104 103 103 102 102 102 102 102 102 102 102 102 102 102 102 102 101 100 99 97 95 94 93 92 92 91 91 90 90 89 88 88 87 87 87 87 87 86 86 85 84 83 82 81 80 79 78 78 78 78 77 77 76 76 75 74 74 73 72 71
101 101 102 102 102 102 103 103 103 103 103 103 103 103 103 103 103 103 103 103 102 102 102 102 103 103 103 103 102 102 101 101 100 100 101 101 101 101 101 101 101 101 101 100 99 97 95 94 93 92 91 91 91 90 89 89 88 88 87 88 88 88 87 87 86 85 84 84 82 81 80 78 78 77 77 77 76 76 76 76 75 75 74 73 73 72
101 101 101 102 102 102 102 102 102 102 102 102 102 102 102 102 102 102 102 102 102 101 101 101 101 102 102 102 102 101 101 100 100 99 99 100 100 101 100 101 101 101 100 100 99 97 96 94 93 92 91 91 90 90 90 89 88 87 87 88 89 89 88 87 86 85 85 84 83 81 80 78 77 77 77 76 76 76 76 75 75 75 74 74 74 73
100 100 101 101 101 101 101 101 101 101 101 101 101 101 101 101 101 101 101 101 101 101 101 101 101 101 101 101 101 101 100 100 99 99 99 99 99 100 100 100 100 100 100 99 99 98 96 95 93 92 91 91 91 90 90 89 88 88 88 88 89 90 89 88 87 86 85 84 83 82 80 78 77 76 76 76 76 76 75 75 75 75 75 75 75 75
99 99 99 100 100 100 100 100 100 100 100 100 100 100 101 101 101 101 101 101 101 101 100 100 100 100 100 101 101 100 100 99 99 99 98 99 99 99 99 99 99 99 99 99 98 98 97 95 94 93 92 91 91 90 90 89 88 87 87 88 90 90 91 90 88 87 86 85 84 82 80 78 77 76 76 76 76 76 75 75 75 75 75 75 75 75
98 99 99 99 99 99 99 99 99 99 99 99 99 100 100 100 100 100 100 100 100 100 100 100 100 100 100 100 100 100 100 99 99 99 98 98 99 99 99 99 99 98 98 98 98 97 97 96 95 93 92 92 91 91 90 89 88 88 87 88 89 90 91 91 90 89 87 86 85 83 80 78 76 76 76 76 76 76 75 75 75 75 76 76 76 76
98 98 98 98 98 98 99 99 99 99 99 99 99 99 100 100 100 100 100 100 100 100 100 100 100 100 100 100 100 100 100 100 99 99 99 98 98 98 98 98 98 98 98 98 97 97 97 96 95 94 93 92 92 91 90 89 88 88 87 88 88 90 91 91 91 91 90 89 88 85 81 78 76 76 76 76 76 76 76 75 75 75 76 76 76 76
97 97 98 98 98 98 98 99 99 99 99 99 99 99 99 100 100 100 100 100 101 101 100 100 100 100 100 100 100 100 100 100 99 99 98 98 98 98 98 98 97 97 97 97 97 96 96 96 95 94 94 93 92 91 91 90 89 88 87 87 88 89 90 91 91 92 92 92 91 88 83 79 76 75 76 76 76 76 76 75 75 75 76 76 76 76
96 96 97 97 97 98 98 98 99 99 99 99 99 99 99 100 100 100 100 100 100 100 100 100 100 99 99 100 100 100 100 99 99 98 98 98 98 97 97 96 96 96 96 96 95 95 95 95 95 94 93 93 93 92 91 90 89 88 88 88 88 88 89 89 90 92 93 95 95 92 87 81 77 76 76 77 77 76 76 76 75 75 76 76 76 76
94 95 96 96 97 97 97 98 98 98 98 99 99 99 99 99 99 99 99 99 99 99 99 99 99 99 99 99 99 99 99 98 97 97 96 96 96 96 95 95 95 94 94 94 93 93 93 93 93 93 93 93 92 91 90 90 89 88 88 88 88 88 88 89 90 92 94 96 97 95 91 84 80 78 77 77 77 77 76 76 76 76 76 76 76 76
93 94 95 95 96 96 96 97 97 97 97 98 98 98 98 98 98 98 98 98 98 98 98 98 98 98 98 98 98 98 97 97 96 95 94 94 94 93 93 92 92 92 91 91 91 91 91 91 91 91 91 91 91 90 90 89 89 88 88 88 88 88 88 89 90 92 94 97 98 97 94 88 83 80 79 79 78 77 77 77 77 76 76 76 76 76
92 93 94 94 95 95 95 96 96 96 96 96 96 96 97 97 97 97 97 97 96 96 95 95 95 95 95 95 95 95 95 95 94 93 92 91 91 91 90 90 90 89 88 88 87 87 87 88 88 88 89 89 89 88 88 88 88 88 87 87 87 88 88 89 90 92 95 97 98 98 95 91 87 84 82 80 79 79 78 78 78 77 77 77 76 76
91 92 93 93 94 94 95 95 95 95 95 95 95 94 94 95 95 95 96 96 95 94 94 93 93 93 93 93 93 93 93 92 92 91 90 89 89 89 89 88 87 87 86 85 85 85 84 85 85 86 86 86 86 86 86 86 86 86 86 86 86 87 88 89 90 92 94 96 97 97 96 93 90 87 84 82 81 80 80 79 79 79 78 77 77 76
91 91 92 93 93 94 94 94 94 94 94 94 93 93 93 93 93 94 95 95 94 94 93 93 93 92 92 92 92 92 92 91 91 90 88 88 88 88 88 87 86 86 85 84 83 83 83 83 83 83 84 84 84 84 84 84 84 84 84 84 85 86 87 88 90 91 93 95 96 96 95 94 92 89 86 84 83 82 82 81 81 80 79 78 77 76
91 91 92 92 93 93 94 94 94 94 94 94 93 93 92 92 93 93 94 94 94 94 94 94 93 93 93 93 93 92 92 92 91 89 88 87 87 88 87 87 86 86 85 84 83 82 82 82 82 82 82 82 82 82 82 82 82 82 82 82 83 84 85 87 89 90 92 93 94 94 94 94 92 90 88 86 85 84 84 83 82 81 80 79 78 77
92 92 93 93 93 94 94 94 94 94 94 94 94 93 93 93 93 93 93 93 93 94 94 94 94 94 94 93 94 94 94 94 92 90 88 88 88 88 87 87 87 87 86 85 84 84 83 83 82 81 81 81 81 81 81 80 80 80 80 80 81 82 84 85 87 89 90 92 92 93 93 93 92 91 89 87 86 86 85 84 83 82 81 80 79 78
94 94 94 94 95 95 95 95 95 95 95 95 94 94 94 94 94 94 93 93 93 94 94 94 94 94 94 94 95 95 96 95 93 91 89 89 89 89 88 87 87 87 87 86 85 85 85 84 83 82 82 81 81 81 80 80 79 78 78 78 79 80 82 83 85 87 88 90 91 91 92 92 91 90 89 87 87 86 86 85 84 83 81 80 79 78
95 95 96 96 96 96 96 96 96 96 96 95 95 95 95 95 94 94 94 94 94 94 94 94 95 95 95 95 95 96 96 96 94 93 91 91 91 90 89 88 88 88 87 87 87 86 86 86 85 84 83 82 82 81 81 80 79 78 78 78 78 79 80 81 83 85 87 88 89 90 90 90 90 89 88 87 86 86 86 85 84 83 82 81 80 79
95 96 96 97 97 97 97 98 97 97 97 97 96 96 96 96 95 95 95 95 95 95 95 95 95 95 95 95 96 96 97 96 95 94 93 92 92 92 91 90 90 89 88 88 88 87 87 87 87 86 85 84 83 82 82 81 80 79 78 78 78 78 79 80 81 83 85 86 87 87 87 88 88 87 85 85 85 85 85 84 83 82 81 80 80 79
96 96 97 97 98 98 99 99 99 99 98 98 98 97 97 97 96 96 96 96 96 96 96 95 95 95 95 96 96 96 97 96 95 94 93 93 93 93 92 92 91 90 89 89 88 88 88 88 88 88 87 86 85 84 83 82 81 80 79 78 78 78 78 79 80 81 83 84 85 85 84 84 83 81 81 81 82 82 82 82 82 82 81 80 79 79
96 96 97 98 98 99 99 99 99 99 99 99 99 99 98 98 97 97 97 97 96 96 96 96 96 96 96 96 96 96 96 96 95 94 94 93 93 93 93 93 92 92 91 90 89 89 89 89 89 89 89 88 87 86 85 84 82 81 80 80 79 79 78 79 79 81 82 82 83 83 80 77 74 72 73 75 77 79 80 80 80 81 80 80 79 79
96 96 97 97 98 98 99 99 99 99 100 100 99 99 99 99 98 98 98 97 97 97 97 96 96 96 96 96 96 96 96 96 95 95 94 94 93 93 93 93 93 93 92 91 91 90 90 90 90 90 90 90 89 88 87 85 84 82 81 81 80 80 79 79 80 81 81 82 82 81 78 73 67 65 67 70 74 77 78 79 79 79 80 80 79 79
95 96 97 97 97 98 98 98 99 99 99 99 99 99 99 99 98 98 98 97 97 97 97 97 97 97 96 96 96 96 96 96 96 95 94 94 94 93 93 94 93 93 93 92 92 91 91 90 90 91 91 91 91 90 89 87 85 84 83 82 82 81 81 81 81 82 82 83 82 80 77 72 67 65 65 69 73 76 77 77 78 78 79 79 79 79
95 95 96 96 96 97 97 97 98 98 98 98 98 98 98 98 98 97 97 97 97 97 96 96 96 96 96 96 96 96 96 96 96 95 95 94 94 94 94 94 94 93 93 93 93 92 92 91 91 91 92 92 92 91 90 88 87 85 84 84 83 83 83 83 83 83 83 83 82 79 76 72 69 67 67 69 73 76 77 77 77 77 78 78 78 77
94 94 95 95 95 96 96 96 96 96 97 97 97 97 97 97 97 97 96 96 96 96 96 96 96 96 96 96 96 96 96 96 96 95 95 95 94 94 94 94 94 94 94 93 93 93 93 92 92 92 92 92 92 92 91 90 88 87 86 84 84 84 84 84 84 84 84 84 82 79 76 73 71 69 68 70 73 76 77 77 76 76 76 77 77 76
93 94 94 94 94 94 95 95 95 95 96 96 96 96 96 96 96 95 95 95 95 95 95 94 94 94 94 94 94 95 95 95 95 95 95 95 94 94 94 94 94 94 94 94 94 94 94 94 93 93 93 93 93 93 92 91 90 89 87 86 85 85 86 85 85 85 85 84 82 80 77 74 72 71 70 71 73 76 77 76 75 75 75 75 75 75
93 93 93 94 94 94 94 94 94 94 95 95 95 95 95 95 94 94 94 94 93 93 93 93 93 92 92 92 92 92 93 93 93 94 94 94 94 94 94 94 94 94 94 93 94 94 94 94 94 94 93 93 93 93 93 93 92 90 88 87 87 87 87 86 86 86 86 85 83 80 78 76 74 73 72 73 74 76 77 76 74 73 73 73 73 73
93 93 93 93 93 93 93 93 93 93 93 93 93 93 93 93 93 92 92 91 91 91 91 90 90 90 90 90 90 90 90 90 91 91 92 92 92 93 93 93 93 93 93 93 93 94 94 94 95 95 94 94 94 93 94 93 93 92 90 89 88 87 87 87 87 87 86 85 84 82 79 77 76 75 74 74 75 76 76 75 73 72 72 71 71 71
93 93 93 93 93 93 93 92 92 92 92 92 91 91 91 91 90 90 89 89 88 88 88 87 87 87 86 86 86 86 86 87 87 88 89 90 90 91 91 91 92 92 92 92 93 93 94 94 94 95 95 94 94 94 94 94 93 93 92 90 89 88 88 88 88 88 87 86 84 82 81 79 78 76 75 75 76 76 76 75 73 72 71 70 70 69
93 93 93 92 92 92 91 91 90 90 89 89 89 89 88 88 88 87 86 86 85 85 85 84 84 84 83 83 83 83 83 84 84 85 86 87 87 88 88 89 89 90 90 91 92 92 92 93 94 95 95 95 94 94 94 94 94 93 93 91 90 90 90 89 89 89 88 87 85 84 82 80 79 77 76 76 77 77 77 76 74 72 71 70 69 68
92 92 92 91 91 90 89 89 88 87 86 86 86 85 85 85 85 84 84 83 83 83 82 82 81 81 81 81 81 80 80 81 81 82 83 84 84 85 86 86 87 88 88 89 90 90 91 92 93 93 94 94 94 95 95 94 94 94 93 92 91 91 90 90 89 89 88 88 86 85 83 81 80 78 77 77 78 79 78 77 75 73 72 70 69 67
91 90 90 89 88 87 87 86 85 84 83 83 83 82 82 82 82 81 81 81 80 80 80 79 79 79 79 78 78 78 78 78 78 79 80 81 82 83 83 84 85 85 86 87 88 89 89 90 91 92 92 93 94 95 95 94 94 94 94 93 93 92 91 91 90 90 89 89 87 86 84 82 81 79 78 78 79 80 80 79 77 74 72 70 69 67
89 88 87 86 86 85 84 83 82 81 81 80 80 80 79 79 79 79 79 78 78 78 77 77 77 76 76 76 76 76 76 76 76 76 77 78 79 80 81 82 83 83 84 85 86 86 87 88 89 90 90 92 93 94 94 94 94 94 94 94 93 93 92 92 91 91 90 89 88 87 85 83 82 80 80 80 80 81 81 80 78 76 73 71 69 68
86 86 85 84 83 82 81 80 79 78 78 77 77 77 76 76 76 76 76 76 75 75 75 74 74 74 74 74 74 73 73 73 73 74 74 75 76 78 79 80 80 81 82 83 84 85 85 86 87 88 89 90 92 93 93 93 93 93 94 94 93 93 93 92 92 91 91 90 89 88 87 85 84 82 81 80 81 82 82 82 80 77 74 71 70 69
84 83 82 81 80 79 78 78 77 76 75 75 74 74 74 74 73 73 73 73 73 72 72 72 72 72 72 71 71 71 71 71 71 71 72 73 74 75 76 77 78 79 80 81 82 83 84 84 85 86 87 88 90 91 92 93 93 93 93 93 93 93 93 93 92 92 91 91 90 89 88 87 85 84 82 81 82 83 84 83 81 78 75 72 71 71
82 81 80 79 78 77 76 75 74 73 73 72 72 71 71 71 71 71 71 70 70 70 70 70 69 69 69 69 69 69 69 69 69 70 70 70 71 72 73 75 76 77 78 79 80 81 82 83 84 84 85 87 88 89 91 92 92 92 92 92 93 93 93 93 93 93 92 92 91 90 89 88 87 85 83 82 83 83 84 84 82 79 76 74 73 73
79 78 77 76 76 75 74 73 72 71 70 70 69 69 69 68 68 68 68 68 68 68 68 67 67 67 67 67 67 67 67 67 68 68 68 68 69 70 71 72 73 75 76 77 78 79 80 81 82 83 84 85 86 88 89 90 91 91 92 92 92 93 93 93 93 93 93 92 92 91 90 89 88 86 85 84 84 84 85 85 83 80 77 76 76 76
Wind_Direction
262 262 262 262 262 263 263 263 264 264 265 265 266 266 267 268 268 269 269 270 270 271 271 271 272 272 273 273 273 274 274 274 275 275 275 276 276 276 277 277 277 277 277 277 277 278 278 278 279 279 279 280 280 280 280 281 281 281 281 282 282 282 282 282 282 283 283 282 282 282 282 282 281 281 281 280 280 280 280 280 280 280 279 278 277 276
262 262 263 263 263 263 263 263 264 264 264 265 265 266 266 267 267 268 269 269 270 270 271 271 271 272 272 273 273 273 274 274 274 274 275 275 275 276 276 276 276 276 277 277 277 277 277 278 278 278 279 279 279 279 279 280 280 280 280 280 281 281 281 281 282 282 282 282 282 282 282 281 281 281 280 280 279 279 279 279 279 279 279 278 278 277
263 263 263 263 263 263 263 264 264 264 264 264 265 265 266 266 267 267 268 268 269 270 270 271 271 271 272 272 273 273 273 274 274 274 274 274 275 275 275 276 276 276 276 276 276 277 277 277 277 278 278 278 278 279 279 279 279 279 279 279 280 280 280 280 280 281 281 281 281 281 281 281 281 280 280 279 279 279 279 279 279 279 279 279 278 278
263 263 263 263 263 263 264 264 264 264 264 264 265 265 265 265 266 266 267 268 268 269 270 270 271 271 271 272 272 273 273 273 273 274 274 274 274 274 275 275 275 276 276 276 276 276 277 277 277 277 277 277 278 278 278 278 278 278 278 278 278 279 279 279 279 279 280 280 280 281 281 281 280 280 280 279 279 279 279 279 278 278 278 278 278 278
263 263 263 263 263 263 264 264 264 264 264 264 264 265 265 265 266 266 267 267 268 268 269 269 270 270 271 271 272 272 272 273 273 273 274 274 274 274 274 274 275 275 275 276 276 276 276 276 276 276 277 277 277 277 277 277 277 277 277 277 277 277 278 278 278 278 278 278 279 279 280 280 280 280 280 279 279 278 278 278 278 277 277 277 277 277
263 263 263 263 263 263 264 264 264 264 264 264 264 264 265 265 265 266 266 266 267 267 268 269 269 270 270 271 271 272 272 272 273 273 273 274 274 274 274 274 274 274 275 275 275 276 276 276 276 276 276 276 276 276 276 276 276 276 276 276 276 276 276 276 276 276 276 277 277 277 278 278 278 279 279 278 278 277 276 276 276 276 276 276 276 276
263 263 263 263 263 263 264 264 264 264 264 264 264 264 265 265 265 265 266 266 266 267 267 268 268 269 270 270 271 271 272 272 272 273 273 273 274 274 274 274 274 274 274 274 275 275 275 275 275 275 275 275 275 275 275 275 275 275 275 275 275 275 275 275 275 275 275 275 275 275 276 276 276 277 277 276 276 276 275 274 274 274 275 275 275 275
263 263 263 264 264 264 264 264 264 264 264 264 264 265 265 265 265 265 266 266 266 266 267 267 268 268 269 269 270 270 271 272 272 272 273 273 273 274 274 274 274 274 274 274 274 274 274 274 274 274 274 274 274 274 274 274 274 274 274 274 274 274 274 274 274 274 273 273 273 273 274 274 274 274 274 274 274 273 273 273 272 273 273 273 273 274
264 264 264 264 265 265 265 265 265 265 265 265 265 265 265 265 266 266 266 266 266 266 267 267 267 268 268 269 269 270 271 271 272 272 272 273 273 274 274 274 274 274 274 274 274 274 274 274 274 273 273 273 273 273 273 273 273 273 273 273 273 273 273 273 273 273 272 272 272 272 272 272 272 272 271 271 271 271 271 271 271 271 271 272 272 272
265 265 265 265 265 266 266 266 266 266 266 266 266 266 266 266 266 266 266 266 267 267 267 267 267 268 268 269 269 270 270 271 271 272 272 273 273 273 274 274 274 274 274 273 273 273 273 273 273 273 273 273 273 272 272 272 272 273 273 273 273 273 272 272 272 272 271 271 271 271 271 271 270 270 270 269 269 270 269 269 269 269 270 270 271 271
266 266 266 266 266 266 266 266 266 267 267 267 267 267 267 267 267 267 267 267 267 267 267 267 268 268 268 269 269 270 270 270 271 271 272 272 273 273 273 274 274 274 274 273 273 273 273 273 273 273 273 272 272 272 272 272 272 272 272 272 272 272 272 271 271 271 271 270 270 270 270 270 270 269 269 268 268 269 269 268 268 268 269 269 269 270
266 266 266 266 267 267 267 267 267 267 267 267 267 267 267 267 267 267 267 267 268 268 268 268 268 268 268 269 269 270 270 270 271 271 272 272 272 273 273 274 274 274 274 273 273 273 273 273 273 273 272 272 272 272 271 271 271 271 271 271 271 271 271 270 270 270 270 270 269 269 269 269 269 269 268 268 268 268 268 268 268 267 267 268 268 269
267 267 267 267 267 267 267 267 267 268 268 268 268 268 268 268 268 268 268 268 268 268 269 269 269 269 269 269 269 270 270 270 271 271 271 272 272 273 273 273 274 274 274 274 273 273 273 273 272 272 272 272 272 272 271 271 270 270 270 270 270 270 270 270 269 269 269 269 269 269 268 268 268 268 268 267 267 267 267 267 267 266 266 266 267 267
267 267 267 267 268 268 268 268 268 268 268 268 268 268 269 269 269 269 268 268 269 269 269 269 269 270 270 270 270 270 270 270 271 271 271 271 272 272 272 273 273 273 274 273 273 273 273 272 272 272 272 272 271 271 271 270 270 270 270 269 269 269 269 269 269 269 269 269 268 268 268 267 267 267 267 267 266 266 265 265 265 265 265 265 265 266
268 268 268 268 268 268 268 268 268 269 269 269 269 269 269 269 269 269 269 269 269 269 269 270 270 270 270 270 270 270 270 270 270 270 271 271 271 272 272 272 273 273 273 273 273 273 272 272 272 272 271 271 271 271 270 270 270 270 269 269 269 268 268 268 268 268 268 268 268 268 267 267 266 266 266 266 265 265 264 264 263 263 263 263 263 264
268 268 268 269 269 269 269 269 269 269 269 269 270 270 270 270 270 270 270 270 270 270 270 270 270 270 270 270 270 270 270 270 270 270 270 270 271 271 271 272 272 272 272 273 273 272 272 272 271 271 271 271 270 270 270 270 269 269 269 269 268 268 267 267 267 267 267 267 267 267 267 266 266 265 265 265 264 264 263 263 262 261 261 261 261 261
269 269 269 269 269 269 269 270 270 270 270 270 270 270 270 270 270 270 270 270 270 270 270 270 270 270 270 270 270 270 270 270 270 270 270 270 270 270 271 271 271 271 272 272 272 272 272 271 271 271 270 270 270 270 269 269 269 269 268 268 268 267 267 267 267 267 267 267 267 266 266 266 265 264 264 263 263 263 262 262 261 260 259 259 259 258
269 269 269 270 270 270 270 270 270 270 270 271 271 271 271 271 271 271 271 271 271 270 270 270 270 270 270 270 270 270 270 270 270 270 270 270 270 270 270 270 270 271 271 271 271 271 271 271 271 270 270 269 269 269 269 268 268 268 268 267 267 267 267 266 266 266 266 266 265 265 265 264 264 263 263 262 262 262 261 261 260 259 259 258 257 257
270 270 270 270 270 270 270 271 271 271 271 271 271 271 271 271 271 271 271 271 271 271 271 271 271 270 270 270 270 271 271 270 270 270 270 270 270 270 270 270 270 270 270 271 271 271 271 271 270 270 269 269 268 268 268 268 267 267 267 267 267 267 267 267 266 266 265 265 264 264 263 263 262 262 261 261 261 261 260 260 260 259 258 257 257 256
271 271 271 271 271 271 271 271 271 271 271 271 271 271 271 271 271 271 271 271 271 271 271 271 271 271 271 271 271 271 271 271 270 270 270 270 270 270 270 270 270 270 270 270 270 270 270 270 270 269 268 268 267 267 267 267 266 266 266 266 266 267 267 268 267 266 266 265 264 263 262 262 261 261 260 260 260 260 260 260 259 259 258 258 257 256
271 271 271 272 272 272 271 271 271 271 271 271 271 271 271 271 271 271 271 271 271 271 271 271 271 271 271 271 271 271 271 271 271 270 270 270 270 270 270 270 269 269 269 269 270 269 269 269 269 268 268 267 267 266 266 266 265 265 264 264 265 265 266 267 267 267 266 266 265 263 262 261 260 260 260 260 260 260 259 259 259 258 258 258 257 256
272 272 272 272 272 272 272 272 272 272 272 272 272 272 272 272 272 272 272 272 272 272 272 272 272 272 272 271 271 271 271 271 271 271 270 270 270 270 270 270 269 269 269 269 269 269 269 268 268 268 267 266 266 265 265 265 264 264 263 263 263 263 264 265 266 266 266 266 265 264 263 261 260 259 259 259 259 259 259 259 258 258 258 257 257 256
272 272 272 272 273 273 273 273 273 273 273 273 273 273 273 273 273 273 273 273 273 273 273 272 272 272 272 272 271 271 271 271 271 271 271 270 270 270 270 269 269 269 269 268 268 268 268 267 267 267 266 266 265 265 264 263 263 262 262 261 261 261 261 262 263 264 264 265 265 265 264 262 260 259 259 259 259 259 259 258 258 258 257 257 257 256
273 273 273 273 273 273 273 273 273 273 273 273 273 273 273 273 273 273 273 273 273 273 273 273 273 273 272 272 272 272 272 271 271 271 271 270 270 270 270 269 269 268 268 268 268 267 267 267 266 266 266 265 264 264 263 262 262 261 260 260 259 259 259 259 260 260 261 263 264 265 265 264 262 260 259 258 258 258 258 258 257 257 257 256 256 256
274 274 274 274 274 274 274 274 274 274 274 274 274 274 274 274 274 274 273 273 273 273 273 273 273 273 273 273 273 272 272 272 272 271 271 270 270 270 269 269 268 268 268 267 267 267 266 266 266 265 265 264 264 263 262 261 261 260 259 258 258 257 257 257 257 258 259 261 262 264 265 264 263 261 259 259 258 258 257 257 257 257 256 256 256 255
274 274 274 274 274 274 274 274 274 274 274 274 274 275 275 275 275 274 274 274 274 273 273 273 273 273 273 273 273 272 272 272 272 271 271 270 270 270 269 269 268 268 267 267 266 266 265 265 265 264 264 263 263 262 262 261 260 259 258 257 256 256 256 255 255 256 257 259 261 263 264 264 263 262 260 259 258 258 257 257 256 256 256 255 255 255
275 275 275 275 275 275 275 275 275 275 275 275 275 275 275 275 275 275 275 275 275 274 274 273 273 273 273 272 272 272 272 272 271 271 271 270 270 269 269 269 268 268 267 266 266 265 265 264 264 264 263 263 262 262 261 260 259 258 257 256 255 255 254 254 254 254 255 257 259 260 262 263 263 262 261 260 259 258 257 257 256 256 255 255 255 254
276 276 276 276 276 276 276 276 275 275 275 275 275 275 275 275 275 275 275 275 275 275 275 274 274 273 273 273 272 272 272 271 271 270 270 269 269 269 269 268 268 267 267 266 266 265 264 264 263 263 263 262 262 261 261 260 259 258 257 256 255 254 253 253 253 253 254 255 257 258 259 260 261 261 260 259 259 258 257 257 256 256 255 255 254 254
277 277 277 276 276 276 276 276 276 276 276 276 276 275 275 275 274 274 275 275 275 275 275 275 274 274 274 273 273 272 272 271 270 270 269 269 268 268 268 268 267 267 267 266 265 265 264 263 262 262 262 262 261 261 260 260 259 258 257 256 254 253 253 252 252 252 253 254 255 256 257 258 259 259 259 258 258 257 257 256 256 256 255 254 254 253
278 278 278 277 277 277 277 277 277 277 277 277 276 276 276 275 275 274 274 274 274 274 274 274 274 274 273 273 273 272 272 271 271 271 270 269 268 267 267 267 266 266 266 266 265 264 263 263 262 261 261 261 261 260 260 259 258 258 257 255 254 253 252 252 251 251 252 253 253 254 255 256 257 257 257 257 256 256 256 256 255 255 255 254 254 253
280 279 279 279 278 278 278 278 278 277 277 277 277 277 276 276 276 275 275 274 274 273 273 273 273 273 273 272 272 271 271 271 271 271 270 269 268 267 267 266 265 265 265 264 264 263 263 263 262 261 260 260 260 259 259 259 258 257 256 255 254 253 252 251 251 251 251 252 252 253 253 254 255 255 255 255 255 255 255 255 255 254 254 254 253 253
281 281 280 280 280 280 279 279 279 278 278 278 278 277 277 277 276 276 275 275 274 274 273 273 272 272 272 271 271 270 270 271 271 271 270 269 268 267 267 265 265 264 264 263 263 262 262 262 262 261 260 259 259 258 258 258 257 256 256 255 254 253 252 251 251 250 251 251 251 252 252 253 253 254 254 254 254 254 254 254 253 253 253 253 253 252
281 281 281 281 281 281 281 280 280 280 279 279 279 278 278 277 277 276 276 275 275 274 273 273 272 272 271 270 270 270 270 270 270 269 269 268 267 267 266 265 264 263 263 262 262 261 261 261 261 260 259 259 258 257 257 257 256 256 255 254 254 253 252 251 251 250 250 251 252 252 252 252 252 252 252 252 253 253 252 252 252 252 252 251 251 251
282 281 282 281 281 281 281 281 281 281 280 280 280 279 279 278 278 277 276 276 275 275 274 273 272 272 271 270 270 269 269 269 269 268 268 267 266 266 266 265 264 263 262 261 261 260 260 260 259 259 259 258 257 257 256 255 255 255 254 254 253 253 252 251 251 250 250 251 252 253 252 251 251 251 251 251 251 251 251 251 251 250 250 250 250 250
282 282 282 282 282 282 282 281 281 281 281 281 280 280 279 279 278 278 277 276 276 275 274 273 273 272 271 270 270 269 269 268 268 268 267 266 265 265 264 264 263 263 262 261 260 259 258 258 258 258 258 257 257 256 255 254 254 254 253 253 252 252 251 251 250 250 250 251 252 252 252 252 251 250 249 249 249 249 249 249 249 249 249 249 249 249
282 282 282 282 282 282 282 281 281 281 281 281 280 280 280 279 278 278 277 277 276 275 274 274 273 272 271 270 270 269 268 268 268 267 266 265 264 263 263 262 262 261 261 260 259 258 257 256 256 256 256 256 256 255 254 254 253 252 252 252 251 251 251 250 250 249 250 250 251 252 252 253 252 250 247 247 247 247 248 248 248 248 248 248 248 248
283 282 282 282 282 282 281 281 281 281 281 280 280 280 279 279 278 278 277 276 276 275 274 273 273 272 271 270 270 269 268 268 267 266 265 264 264 263 262 261 261 260 259 259 258 257 256 255 255 255 254 254 254 254 254 253 252 251 251 250 250 250 250 249 249 249 249 250 251 252 252 252 251 249 247 246 246 247 247 247 247 247 248 248 248 248
283 283 282 282 282 282 281 281 281 281 280 280 280 279 279 278 277 277 276 276 275 274 273 273 272 271 270 270 269 268 268 267 266 266 265 264 263 262 261 260 260 259 258 258 257 257 256 255 254 253 253 253 253 253 253 252 251 250 250 249 249 249 249 249 249 249 249 250 251 251 251 251 250 248 246 245 246 246 247 247 247 247 247 248 248 248
284 284 283 283 283 282 282 282 281 281 281 280 280 279 279 278 277 277 276 275 274 274 273 272 271 270 270 269 268 268 267 266 266 265 264 263 262 261 260 259 259 258 257 257 256 256 255 254 253 252 252 252 252 252 252 251 251 250 249 248 248 248 248 248 248 248 249 250 250 251 250 250 248 247 245 245 245 246 247 247 246 246 246 247 248 248
286 285 285 284 284 284 283 283 282 282 281 281 280 280 279 278 278 277 276 275 274 274 273 272 271 270 269 268 268 267 266 266 265 264 263 263 262 261 260 259 258 257 256 256 255 255 254 253 252 252 251 251 250 250 250 250 250 249 248 247 247 246 247 247 247 248 248 249 250 250 250 249 248 246 245 244 245 246 246 246 246 246 246 246 247 247
287 287 286 286 285 285 285 284 284 283 283 282 281 281 280 279 278 278 277 276 275 274 273 272 271 270 269 268 267 266 266 265 264 264 263 262 261 260 259 258 257 257 256 255 254 253 253 252 252 251 251 250 249 249 249 249 249 248 247 246 246 246 246 246 246 247 248 248 249 249 249 248 247 246 245 245 245 245 246 246 246 246 246 246 246 246
289 288 288 287 287 286 286 285 285 284 284 283 282 282 281 280 279 278 277 276 275 274 273 272 271 270 269 268 267 266 265 264 264 263 262 261 260 260 259 258 257 256 255 254 253 253 252 252 251 251 250 249 249 248 248 248 248 247 246 245 245 245 245 245 245 246 246 247 247 247 247 247 246 246 245 245 245 245 246 246 246 245 245 245 245 245
290 290 289 289 288 288 287 287 286 285 285 284 283 282 282 281 280 279 278 277 276 275 274 273 272 271 270 268 267 266 265 264 263 262 262 261 260 259 258 257 256 256 255 254 253 252 251 251 250 250 250 249 248 247 247 247 247 246 246 245 244 243 243 243 244 244 245 245 246 246 246 246 245 245 245 245 245 245 245 246 245 245 244 244 244 244
291 291 290 290 289 289 288 288 287 286 285 285 284 283 282 281 280 279 278 277 276 275 274 273 272 271 270 269 268 266 265 264 263 262 261 260 260 259 258 257 256 255 254 253 252 251 251 250 250 249 249 249 248 247 247 246 246 246 245 244 244 243 242 242 243 243 243 244 244 244 244 244 244 244 244 244 244 244 245 245 245 244 244 243 243 243
293 292 292 291 290 290 289 288 287 287 286 285 284 283 282 281 281 280 279 278 277 276 275 274 273 272 270 269 268 267 265 264 263 262 261 260 259 258 257 256 256 255 254 253 252 251 250 249 249 249 248 248 248 247 246 246 245 245 245 244 243 242 242 242 242 242 242 242 243 243 243 243 243 242 242 242 243 243 244 244 244 243 243 243 242 242
294 293 292 292 291 290 290 289 288 287 286 285 284 283 282 282 281 280 279 278 277 276 275 274 273 272 271 269 268 267 266 264 263 262 261 260 259 258 257 256 255 254 253 252 252 251 250 249 248 248 248 247 247 247 246 245 245 244 244 243 243 242 241 241 241 241 241 241 241 241 241 241 241 241 240 240 241 242 243 243 243 242 242 242 241 241
294 294 293 292 292 291 290 289 288 288 287 286 285 284 283 282 281 280 279 278 277 276 275 274 273 272 271 270 268 267 266 265 263 262 261 260 259 258 257 256 255 254 253 252 251 250 249 249 248 247 247 246 246 246 246 245 244 244 243 243 242 241 241 240 240 240 240 240 240 240 240 240 239 239 239 239 239 240 241 242 242 241 241 241 240 240
295 295 294 293 292 292 291 290 289 288 287 286 285 284 283 282 281 280 279 278 277 276 275 274 273 272 271 270 269 267 266 265 263 262 261 259 258 258 257 256 255 254 253 252 251 250 249 248 247 247 246 245 245 245 245 245 244 243 243 242 242 241 240 240 239 239 239 239 239 239 239 238 238 237 237 237 238 239 240 241 241 241 240 239 239 239
296 295 295 294 293 292 292 291 290 289 288 287 285 284 283 282 281 280 279 278 277 276 275 274 273 272 271 270 269 267 266 265 263 262 261 259 258 257 256 255 254 253 252 251 250 249 249 248 247 246 245 245 245 245 245 245 244 243 242 242 241 241 240 240 239 239 238 238 238 238 238 237 237 236 236 235 236 237 238 240 240 240 239 238 238 238
297 296 296 295 294 293 292 291 290 289 288 287 286 285 284 283 282 280 279 278 277 276 275 274 273 272 271 270 269 267 266 265 264 262 261 259 258 257 256 255 254 253 252 251 250 249 248 247 246 246 245 244 244 244 244 244 244 243 242 241 241 240 240 239 239 238 238 237 237 237 237 237 236 235 235 234 234 235 237 238 239 239 238 237 237 237
298 297 296 296 295 294 293 292 291 290 289 288 286 285 284 283 282 281 280 279 278 277 275 274 273 272 271 270 268 267 266 265 263 262 261 259 258 257 256 255 254 253 252 251 250 249 248 247 246 245 244 244 243 243 242 242 243 242 242 241 240 240 239 239 238 238 237 237 237 237 236 236 236 235 234 233 233 234 235 237 238 238 237 237 236 236
Height
10587 10587 10588 10589 10589 10588 10587 10587 10587 10587 10587 10587 10587 10586 10585 10585 10584 10583 10582 10582 10581 10581 10582 10582 10582 10582 10582 10581 10582 10582 10582 10584 10584 10585 10587 10588 10589 10590 10592 10594 10595 10597 10599 10600 10601 10601 10602 10602 10602 10602 10602 10602 10603 10603 10604 10604 10603 10603 10603 10603 10604 10604 10604 10605 10606 10607 10609 10611 10613 10614 10615 10616 10617 10617 10618 10619 10619 10619 10620 10620 10621 10622 10622 10624 10624 10625
10580 10580 10581 10582 10582 10581 10580 10580 10581 10582 10581 10580 10581 10581 10580 10579 10578 10577 10576 10575 10575 10574 10574 10574 10575 10575 10575 10575 10575 10575 10575 10577 10578 10579 10580 10582 10582 10584 10585 10586 10588 10590 10591 10593 10594 10595 10595 10596 10596 10597 10597 10597 10597 10597 10598 10598 10598 10597 10597 10597 10597 10598 10599 10599 10599 10600 10601 10603 10605 10607 10609 10610 10610 10611 10612 10613 10614 10614 10614 10615 10615 10616 10617 10618 10619 10620
10573 10573 10574 10574 10574 10574 10572 10572 10574 10575 10575 10575 10575 10575 10575 10574 10572 10570 10570 10569 10569 10568 10567 10567 10568 10568 10567 10567 10567 10567 10568 10569 10570 10572 10574 10575 10576 10577 10578 10579 10580 10582 10584 10585 10587 10588 10589 10590 10590 10591 10591 10591 10591 10592 10592 10592 10592 10592 10592 10592 10592 10592 10593 10593 10593 10594 10594 10595 10597 10599 10601 10602 10604 10605 10606 10607 10607 10608 10609 10609 10610 10610 10611 10612 10613 10614
10565 10565 10565 10565 10565 10565 10565 10565 10565 10567 10567 10568 10568 10568 10568 10567 10565 10564 10564 10564 10563 10562 10561 10561 10561 10561 10560 10560 10560 10560 10561 10562 10562 10564 10566 10567 10569 10570 10572 10572 10573 10575 10576 10578 10579 10581 10582 10583 10584 10584 10585 10585 10585 10585 10585 10586 10587 10587 10587 10587 10587 10587 10587 10588 10588 10588 10588 10589 10590 10591 10594 10595 10597 10598 10599 10600 10601 10602 10602 10603 10604 10605 10606 10607 10607 10608
10557 10556 10555 10556 10557 10557 10555 10556 10557 10559 10559 10560 10560 10560 10559 10559 10558 10558 10558 10557 10557 10556 10555 10555 10554 10554 10554 10553 10553 10553 10554 10554 10555 10556 10557 10559 10560 10562 10564 10565 10567 10568 10569 10570 10572 10574 10575 10576 10577 10577 10578 10579 10579 10579 10579 10579 10580 10581 10581 10582 10582 10582 10582 10582 10583 10583 10583 10583 10584 10585 10586 10588 10589 10590 10592 10594 10595 10595 10597 10597 10598 10599 10600 10602 10602 10603
10547 10547 10547 10547 10547 10547 10547 10547 10549 10550 10551 10552 10552 10551 10551 10550 10550 10551 10550 10550 10550 10549 10549 10548 10548 10547 10547 10546 10545 10545 10546 10546 10547 10548 10549 10550 10552 10554 10555 10557 10559 10561 10562 10564 10564 10566 10567 10568 10569 10570 10570 10572 10572 10572 10572 10572 10573 10574 10575 10575 10576 10576 10577 10577 10577 10578 10578 10578 10578 10579 10580 10581 10582 10584 10585 10587 10588 10590 10590 10592 10593 10594 10595 10596 10597 10599
10539 10539 10539 10539 10539 10539 10539 10539 10540 10542 10542 10543 10543 10542 10542 10543 10543 10543 10543 10543 10542 10542 10542 10542 10541 10540 10540 10539 10539 10539 10539 10539 10539 10540 10541 10542 10543 10545 10547 10549 10551 10553 10555 10556 10557 10559 10559 10560 10561 10562 10563 10564 10565 10565 10565 10565 10565 10566 10567 10568 10569 10570 10570 10571 10572 10572 10573 10573 10574 10574 10574 10575 10576 10577 10579 10580 10582 10583 10585 10586 10587 10589 10590 10591 10592 10594
10531 10530 10530 10531 10531 10531 10531 10531 10532 10533 10534 10534 10534 10534 10534 10535 10535 10535 10535 10535 10535 10535 10535 10535 10534 10534 10533 10532 10532 10532 10532 10532 10532 10532 10533 10534 10534 10535 10537 10540 10542 10545 10547 10549 10550 10551 10552 10552 10553 10554 10555 10555 10557 10559 10558 10558 10558 10559 10560 10560 10562 10563 10564 10565 10565 10566 10567 10568 10569 10569 10569 10570 10571 10572 10573 10574 10575 10577 10579 10580 10582 10584 10585 10586 10587 10588
10524 10524 10523 10523 10524 10524 10523 10524 10524 10525 10525 10526 10526 10526 10527 10527 10527 10527 10527 10527 10527 10528 10529 10529 10528 10527 10526 10525 10525 10525 10525 10525 10525 10525 10525 10525 10526 10527 10529 10531 10534 10536 10538 10540 10542 10543 10544 10545 10545 10546 10547 10548 10549 10550 10550 10551 10552 10552 10553 10554 10554 10555 10556 10557 10559 10560 10560 10562 10562 10563 10564 10565 10566 10567 10568 10569 10570 10571 10573 10575 10577 10578 10579 10581 10582 10583
10517 10516 10515 10515 10515 10516 10515 10515 10515 10516 10517 10517 10518 10518 10519 10519 10519 10519 10519 10519 10519 10520 10521 10522 10521 10520 10519 10519 10519 10519 10519 10519 10519 10519 10519 10519 10518 10519 10520 10522 10524 10527 10529 10532 10534 10535 10536 10537 10537 10538 10539 10540 10541 10542 10543 10544 10545 10545 10547 10547 10548 10548 10549 10550 10551 10552 10554 10555 10556 10557 10558 10559 10560 10562 10562 10564 10564 10565 10567 10569 10570 10573 10576 10577 10577 10577
10509 10509 10508 10508 10507 10507 10507 10507 10507 10508 10509 10509 10509 10510 10510 10512 10512 10512 10512 10511 10511 10512 10513 10514 10514 10514 10513 10512 10511 10511 10512 10512 10512 10512 10512 10512 10511 10511 10512 10513 10515 10517 10520 10522 10525 10527 10528 10529 10529 10530 10531 10532 10533 10534 10535 10537 10537 10537 10539 10539 10540 10541 10542 10542 10544 10545 10547 10548 10549 10550 10552 10552 10554 10555 10557 10558 10559 10560 10562 10564 10565 10567 10571 10573 10572 10572
10500 10500 10500 10499 10499 10499 10499 10499 10499 10499 10500 10500 10500 10500 10502 10503 10504 10504 10504 10503 10503 10503 10504 10505 10505 10506 10506 10505 10504 10504 10505 10505 10505 10505 10505 10505 10504 10504 10504 10504 10505 10508 10510 10514 10516 10518 10520 10520 10522 10522 10523 10524 10525 10526 10527 10529 10529 10530 10531 10532 10533 10534 10534 10535 10536 10537 10539 10541 10542 10544 10545 10546 10547 10549 10550 10552 10553 10555 10556 10558 10560 10562 10566 10567 10565 10565
10492 10491 10491 10491 10490 10490 10490 10490 10490 10491 10492 10492 10492 10492 10492 10494 10495 10496 10495 10495 10495 10495 10495 10495 10496 10497 10498 10498 10497 10497 10498 10498 10499 10499 10499 10497 10497 10496 10497 10497 10497 10499 10501 10504 10507 10509 10511 10513 10514 10515 10515 10516 10517 10519 10520 10520 10521 10522 10524 10524 10525 10526 10527 10528 10529 10530 10532 10534 10535 10537 10539 10540 10541 10542 10544 10545 10547 10549 10550 10552 10554 10557 10562 10562 10561 10562
10483 10483 10483 10482 10482 10482 10482 10482 10482 10482 10483 10483 10484 10484 10484 10485 10486 10487 10487 10487 10487 10488 10489 10488 10487 10487 10488 10489 10490 10490 10491 10491 10491 10491 10491 10490 10489 10489 10489 10489 10490 10490 10492 10495 10497 10499 10502 10505 10506 10507 10507 10508 10509 10510 10512 10513 10514 10514 10515 10515 10517 10518 10519 10520 10522 10524 10525 10527 10528 10530 10532 10534 10535 10536 10537 10539 10541 10543 10545 10547 10549 10551 10554 10556 10557 10558
10475 10474 10474 10474 10474 10474 10474 10474 10474 10474 10474 10475 10475 10475 10475 10476 10477 10477 10478 10479 10479 10480 10481 10480 10479 10479 10479 10480 10481 10482 10484 10484 10484 10484 10484 10483 10482 10482 10482 10482 10482 10482 10484 10485 10487 10490 10493 10496 10498 10499 10499 10500 10500 10502 10503 10504 10505 10507 10507 10508 10509 10509 10510 10512 10514 10515 10518 10519 10521 10523 10525 10527 10528 10529 10530 10532 10535 10537 10539 10541 10543 10545 10547 10549 10550 10553
10467 10466 10466 10465 10465 10465 10466 10466 10466 10466 10466 10467 10467 10467 10467 10467 10468 10469 10470 10470 10470 10472 10472 10472 10471 10470 10470 10470 10471 10473 10475 10475 10476 10477 10477 10476 10475 10475 10475 10475 10475 10475 10475 10477 10479 10480 10484 10487 10489 10490 10492 10492 10493 10493 10494 10495 10496 10497 10499 10500 10500 10502 10503 10505 10506 10508 10510 10511 10513 10515 10517 10519 10521 10522 10524 10526 10528 10530 10532 10535 10537 10539 10541 10543 10545 10547
10459 10458 10458 10457 10457 10457 10458 10458 10458 10458 10458 10459 10459 10459 10459 10459 10459 10460 10460 10461 10462 10462 10463 10463 10463 10463 10462 10462 10462 10464 10465 10467 10467 10469 10469 10469 10467 10467 10467 10468 10467 10467 10468 10469 10470 10472 10475 10478 10480 10482 10484 10484 10485 10485 10486 10487 10489 10489 10490 10491 10492 10494 10496 10497 10499 10500 10502 10503 10505 10507 10510 10512 10514 10515 10517 10519 10521 10524 10525 10528 10530 10533 10535 10537 10540 10542
10450 10450 10450 10450 10450 10450 10450 10450 10450 10450 10450 10450 10450 10450 10450 10450 10451 10451 10452 10452 10452 10453 10454 10454 10454 10454 10454 10454 10453 10454 10455 10458 10459 10460 10460 10460 10459 10459 10459 10460 10460 10460 10460 10461 10462 10463 10465 10469 10471 10473 10475 10475 10476 10477 10477 10479 10480 10481 10482 10482 10483 10485 10487 10489 10492 10494 10494 10496 10497 10500 10502 10505 10507 10508 10510 10512 10514 10516 10519 10520 10523 10525 10528 10530 10533 10535
10442 10442 10442 10442 10442 10442 10442 10442 10442 10442 10442 10442 10442 10442 10442 10442 10442 10442 10442 10442 10443 10444 10444 10445 10445 10445 10445 10445 10444 10444 10447 10449 10450 10450 10452 10452 10451 10450 10452 10452 10452 10452 10453 10454 10454 10455 10457 10459 10462 10464 10466 10467 10467 10468 10469 10470 10472 10474 10474 10474 10474 10475 10475 10479 10482 10485 10487 10488 10490 10492 10495 10497 10499 10501 10503 10505 10507 10509 10511 10514 10515 10518 10520 10523 10525 10529
10434 10434 10434 10434 10434 10434 10434 10434 10434 10434 10434 10434 10434 10434 10434 10434 10434 10434 10433 10434 10434 10435 10435 10435 10436 10436 10436 10436 10435 10436 10437 10439 10440 10441 10442 10443 10443 10442 10442 10443 10444 10444 10445 10445 10446 10447 10449 10450 10452 10454 10457 10457 10459 10460 10461 10462 10464 10466 10467 10467 10467 10466 10466 10467 10470 10474 10477 10479 10481 10484 10487 10490 10492 10494 10495 10497 10499 10502 10504 10506 10509 10510 10512 10515 10517 10520
10425 10425 10425 10426 10426 10426 10425 10425 10425 10425 10425 10426 10426 10426 10425 10425 10425 10425 10424 10425 10425 10425 10426 10427 10427 10427 10427 10427 10427 10427 10428 10430 10430 10430 10432 10434 10434 10433 10434 10434 10435 10436 10437 10437 10439 10439 10440 10441 10443 10445 10447 10448 10449 10450 10452 10454 10456 10459 10460 10460 10460 10459 10459 10459 10460 10463 10466 10469 10471 10474 10479 10482 10485 10487 10489 10490 10492 10495 10497 10499 10502 10504 10505 10507 10510 10512
10419 10417 10417 10417 10418 10417 10416 10416 10416 10417 10417 10417 10417 10417 10417 10417 10417 10416 10415 10416 10416 10416 10417 10417 10418 10419 10419 10419 10417 10417 10419 10420 10420 10421 10423 10425 10424 10424 10424 10426 10427 10427 10428 10429 10430 10431 10432 10432 10434 10435 10437 10438 10440 10442 10444 10446 10448 10450 10452 10453 10453 10453 10453 10452 10452 10454 10457 10459 10461 10465 10469 10474 10477 10480 10481 10483 10485 10487 10490 10492 10494 10497 10498 10500 10502 10504
10412 10410 10410 10410 10410 10409 10409 10408 10407 10407 10408 10408 10408 10407 10407 10408 10408 10407 10407 10407 10407 10407 10407 10408 10409 10409 10409 10409 10408 10408 10409 10410 10411 10412 10415 10415 10414 10414 10416 10418 10418 10418 10419 10420 10421 10422 10423 10424 10424 10425 10427 10429 10430 10432 10435 10437 10440 10442 10444 10445 10446 10446 10447 10447 10447 10447 10449 10450 10451 10454 10459 10464 10469 10472 10474 10476 10479 10480 10483 10485 10487 10489 10491 10493 10495 10497
10404 10404 10402 10402 10402 10401 10400 10400 10399 10399 10399 10399 10399 10399 10399 10399 10399 10399 10398 10398 10398 10398 10399 10399 10399 10399 10398 10398 10398 10398 10399 10400 10402 10404 10405 10405 10405 10405 10407 10409 10409 10409 10409 10411 10412 10414 10414 10414 10415 10416 10418 10419 10420 10423 10426 10429 10430 10433 10435 10437 10438 10439 10439 10440 10441 10441 10442 10442 10441 10443 10447 10454 10459 10464 10467 10469 10471 10474 10476 10478 10480 10482 10484 10485 10487 10489
10397 10395 10394 10394 10394 10393 10392 10392 10391 10391 10390 10390 10390 10390 10390 10390 10390 10389 10389 10389 10389 10389 10390 10390 10389 10389 10387 10388 10389 10388 10387 10390 10392 10395 10395 10395 10396 10397 10398 10399 10399 10399 10400 10402 10404 10405 10405 10405 10405 10407 10408 10409 10410 10413 10416 10419 10421 10424 10426 10429 10430 10431 10432 10434 10434 10434 10434 10434 10433 10434 10437 10442 10449 10454 10458 10461 10464 10466 10469 10470 10472 10474 10476 10479 10480 10482
10389 10387 10387 10385 10385 10384 10384 10384 10383 10383 10382 10382 10382 10382 10382 10381 10380 10380 10379 10379 10380 10380 10382 10381 10380 10379 10379 10380 10379 10378 10377 10380 10382 10385 10385 10387 10387 10387 10387 10389 10390 10390 10391 10394 10395 10396 10396 10396 10397 10397 10399 10399 10401 10404 10407 10409 10411 10414 10417 10419 10422 10423 10425 10426 10427 10428 10427 10427 10426 10427 10428 10433 10439 10444 10449 10452 10455 10458 10460 10463 10465 10467 10469 10471 10473 10475
10381 10380 10379 10377 10376 10375 10375 10375 10374 10374 10374 10374 10374 10374 10374 10373 10372 10370 10369 10369 10370 10372 10372 10372 10370 10370 10370 10370 10370 10368 10368 10370 10373 10375 10376 10378 10378 10377 10377 10379 10380 10382 10382 10385 10386 10387 10388 10388 10388 10389 10390 10390 10392 10394 10397 10399 10401 10404 10407 10410 10413 10415 10416 10418 10419 10420 10420 10420 10420 10421 10422 10425 10429 10434 10439 10443 10446 10449 10452 10454 10457 10459 10461 10464 10465 10467
10373 10372 10370 10369 10368 10367 10366 10365 10365 10365 10365 10365 10366 10366 10366 10365 10364 10362 10360 10359 10360 10362 10362 10361 10360 10361 10362 10361 10360 10359 10359 10361 10362 10364 10367 10370 10370 10368 10368 10370 10372 10373 10374 10375 10377 10379 10379 10379 10379 10380 10381 10381 10383 10385 10387 10389 10392 10395 10397 10400 10404 10406 10408 10409 10410 10412 10413 10414 10415 10415 10416 10419 10422 10425 10430 10434 10437 10440 10442 10445 10448 10450 10453 10455 10458 10460
10364 10363 10362 10361 10360 10359 10358 10357 10356 10356 10356 10356 10357 10357 10357 10357 10356 10354 10352 10352 10352 10353 10351 10350 10351 10352 10352 10351 10350 10350 10350 10350 10351 10354 10359 10362 10361 10359 10360 10363 10364 10363 10364 10367 10369 10369 10370 10370 10371 10372 10372 10373 10375 10377 10378 10380 10383 10386 10389 10391 10394 10397 10399 10400 10402 10404 10405 10407 10409 10410 10411 10412 10415 10418 10422 10425 10429 10431 10434 10436 10439 10442 10445 10447 10450 10453
10354 10354 10353 10352 10351 10350 10349 10348 10347 10347 10347 10347 10347 10347 10347 10348 10347 10346 10345 10344 10345 10344 10342 10341 10341 10342 10342 10342 10341 10340 10339 10338 10340 10345 10351 10353 10351 10350 10352 10355 10355 10354 10356 10359 10360 10360 10360 10360 10362 10364 10365 10365 10367 10369 10370 10372 10375 10377 10380 10382 10385 10387 10389 10392 10394 10395 10397 10399 10402 10404 10405 10406 10409 10412 10415 10418 10420 10423 10425 10428 10430 10434 10437 10439 10442 10445
10344 10343 10342 10341 10340 10340 10340 10339 10338 10338 10337 10337 10337 10337 10337 10337 10337 10337 10336 10335 10335 10335 10334 10332 10332 10332 10332 10332 10332 10330 10328 10327 10330 10336 10342 10342 10340 10340 10344 10347 10345 10345 10347 10350 10351 10350 10350 10351 10353 10355 10357 10357 10359 10360 10362 10364 10367 10369 10371 10374 10375 10377 10380 10382 10384 10387 10389 10392 10394 10396 10398 10399 10402 10405 10408 10410 10413 10415 10417 10420 10423 10426 10429 10432 10435 10438
10334 10333 10332 10330 10330 10329 10329 10329 10328 10327 10327 10327 10327 10327 10327 10327 10327 10326 10326 10325 10325 10325 10325 10324 10323 10323 10322 10322 10322 10320 10319 10319 10322 10327 10331 10332 10330 10330 10334 10337 10336 10335 10339 10342 10342 10342 10342 10342 10344 10345 10347 10349 10350 10351 10354 10356 10359 10361 10363 10365 10367 10368 10370 10373 10375 10378 10380 10384 10386 10388 10390 10392 10394 10397 10400 10403 10405 10407 10409 10412 10415 10418 10421 10424 10427 10430
10326 10324 10322 10321 10320 10319 10318 10317 10317 10317 10316 10316 10316 10316 10316 10316 10316 10316 10315 10315 10315 10315 10314 10314 10313 10313 10312 10312 10312 10310 10309 10310 10312 10316 10320 10321 10320 10320 10323 10325 10326 10327 10330 10332 10333 10334 10334 10334 10334 10335 10338 10340 10341 10343 10345 10348 10350 10353 10355 10357 10358 10360 10362 10364 10367 10369 10372 10375 10378 10380 10382 10384 10387 10390 10392 10395 10397 10399 10402 10404 10407 10410 10413 10416 10419 10422
10317 10315 10314 10312 10310 10309 10307 10307 10306 10305 10305 10305 10305 10305 10305 10305 10305 10305 10305 10304 10304 10304 10303 10303 10302 10302 10302 10302 10301 10300 10299 10300 10302 10305 10309 10311 10311 10311 10312 10315 10316 10317 10319 10322 10324 10324 10325 10325 10325 10326 10327 10329 10332 10334 10337 10338 10341 10344 10346 10348 10350 10352 10354 10355 10358 10361 10364 10368 10371 10374 10374 10376 10379 10382 10385 10388 10390 10392 10394 10397 10400 10402 10405 10409 10412 10415
10309 10307 10305 10304 10302 10300 10298 10297 10295 10295 10294 10294 10293 10293 10293 10293 10293 10293 10293 10293 10293 10292 10292 10292 10291 10291 10291 10291 10290 10290 10289 10289 10292 10295 10299 10300 10300 10300 10302 10304 10305 10306 10309 10312 10314 10315 10316 10316 10317 10317 10318 10319 10321 10324 10327 10329 10332 10336 10338 10340 10342 10343 10345 10347 10349 10352 10356 10360 10364 10367 10367 10369 10372 10375 10378 10380 10382 10384 10387 10390 10392 10395 10398 10401 10404 10407
10300 10299 10297 10295 10293 10291 10289 10287 10286 10285 10284 10283 10282 10282 10281 10281 10281 10281 10281 10281 10281 10281 10280 10280 10280 10279 10279 10279 10279 10279 10278 10279 10281 10284 10287 10289 10289 10290 10292 10294 10294 10295 10299 10301 10302 10304 10307 10307 10307 10308 10309 10309 10310 10313 10316 10320 10324 10327 10330 10332 10333 10335 10337 10339 10340 10344 10347 10352 10355 10359 10360 10362 10365 10367 10370 10372 10374 10376 10379 10382 10385 10387 10390 10394 10397 10400
10292 10290 10287 10285 10284 10282 10280 10278 10276 10275 10274 10272 10272 10270 10270 10270 10269 10269 10269 10269 10269 10269 10269 10268 10268 10268 10268 10268 10268 10267 10267 10269 10270 10272 10275 10276 10278 10280 10282 10282 10282 10285 10289 10290 10290 10292 10297 10297 10298 10299 10300 10299 10300 10302 10306 10311 10315 10319 10321 10323 10324 10326 10328 10330 10332 10335 10339 10342 10345 10349 10352 10355 10357 10360 10362 10365 10367 10369 10372 10375 10377 10380 10382 10385 10389 10392
10283 10280 10278 10276 10274 10272 10270 10269 10267 10265 10264 10262 10261 10260 10259 10259 10258 10257 10257 10257 10257 10257 10257 10257 10256 10256 10256 10256 10256 10256 10257 10257 10259 10260 10262 10264 10267 10269 10270 10270 10272 10275 10278 10279 10279 10282 10286 10287 10288 10289 10290 10290 10291 10294 10297 10301 10305 10309 10311 10314 10317 10319 10320 10322 10324 10326 10329 10332 10335 10339 10343 10346 10349 10352 10355 10358 10360 10362 10365 10367 10370 10373 10375 10378 10381 10384
10273 10271 10269 10267 10265 10263 10261 10259 10257 10255 10254 10252 10250 10249 10248 10247 10247 10246 10245 10245 10245 10245 10245 10244 10244 10244 10245 10245 10245 10245 10245 10245 10247 10248 10250 10252 10254 10256 10258 10259 10260 10263 10265 10267 10270 10272 10275 10276 10277 10279 10280 10281 10282 10285 10287 10291 10295 10299 10302 10306 10309 10311 10312 10313 10315 10317 10320 10323 10327 10330 10334 10338 10341 10344 10347 10350 10352 10355 10357 10359 10362 10365 10368 10371 10374 10377
10264 10261 10259 10257 10255 10253 10250 10249 10246 10244 10242 10241 10239 10238 10236 10235 10234 10234 10233 10233 10233 10232 10232 10232 10232 10232 10233 10233 10234 10234 10234 10234 10235 10236 10238 10240 10242 10244 10246 10247 10249 10251 10254 10257 10259 10262 10263 10264 10266 10268 10270 10272 10274 10275 10277 10280 10284 10288 10293 10298 10300 10302 10302 10304 10307 10309 10311 10315 10319 10322 10326 10330 10334 10337 10339 10342 10345 10347 10349 10352 10355 10358 10361 10364 10367 10370
10253 10250 10248 10246 10244 10242 10240 10238 10236 10234 10232 10230 10228 10226 10224 10223 10222 10221 10220 10220 10220 10220 10220 10220 10220 10220 10220 10221 10222 10222 10223 10224 10224 10224 10225 10227 10229 10232 10234 10235 10237 10239 10242 10245 10248 10250 10252 10254 10255 10257 10260 10262 10264 10266 10268 10270 10274 10278 10284 10288 10290 10291 10294 10297 10300 10302 10304 10307 10311 10315 10319 10322 10325 10329 10332 10335 10338 10340 10341 10344 10348 10351 10354 10357 10360 10364
10243 10240 10238 10235 10233 10231 10229 10227 10225 10223 10220 10219 10216 10214 10212 10210 10210 10209 10208 10207 10207 10207 10207 10207 10207 10207 10208 10209 10210 10211 10212 10212 10212 10213 10214 10215 10217 10219 10222 10224 10225 10228 10231 10234 10236 10239 10240 10243 10245 10247 10249 10252 10254 10257 10259 10260 10264 10268 10274 10277 10280 10284 10289 10291 10292 10294 10297 10300 10303 10307 10311 10314 10317 10320 10324 10327 10330 10332 10335 10338 10341 10344 10347 10350 10354 10357
10232 10230 10227 10225 10222 10220 10218 10215 10214 10211 10209 10207 10205 10202 10200 10199 10197 10197 10196 10195 10195 10195 10195 10195 10195 10195 10196 10197 10198 10199 10200 10201 10202 10202 10203 10204 10205 10207 10210 10212 10214 10216 10219 10222 10225 10227 10229 10232 10234 10236 10238 10241 10245 10247 10249 10250 10254 10259 10263 10267 10272 10277 10282 10282 10282 10284 10289 10292 10295 10299 10304 10307 10309 10312 10316 10319 10322 10324 10328 10331 10334 10337 10340 10343 10347 10350
10222 10219 10216 10214 10211 10209 10207 10204 10202 10200 10198 10195 10194 10191 10189 10187 10186 10185 10184 10184 10184 10183 10183 10183 10184 10184 10185 10185 10186 10187 10189 10190 10191 10192 10192 10192 10194 10195 10198 10200 10202 10205 10208 10210 10213 10215 10219 10222 10224 10225 10227 10230 10234 10237 10239 10241 10245 10249 10252 10257 10262 10267 10270 10270 10274 10278 10283 10285 10288 10292 10297 10300 10303 10307 10310 10314 10315 10318 10320 10324 10327 10330 10333 10337 10340 10344
10212 10209 10205 10203 10200 10198 10195 10193 10191 10189 10187 10185 10182 10180 10178 10177 10175 10174 10173 10172 10172 10172 10172 10172 10172 10173 10173 10174 10175 10176 10178 10179 10180 10181 10182 10182 10183 10185 10187 10189 10191 10194 10196 10199 10202 10204 10207 10211 10213 10214 10217 10221 10224 10227 10228 10231 10235 10239 10242 10247 10252 10257 10260 10264 10268 10272 10275 10277 10280 10285 10289 10292 10297 10301 10305 10307 10309 10311 10314 10316 10320 10323 10326 10330 10334 10337
10202 10199 10195 10192 10190 10187 10185 10182 10180 10179 10177 10174 10172 10170 10168 10166 10165 10164 10162 10162 10162 10161 10161 10161 10162 10162 10162 10162 10164 10165 10167 10168 10169 10170 10171 10172 10172 10174 10175 10178 10180 10182 10185 10188 10190 10194 10197 10200 10202 10205 10208 10212 10214 10215 10217 10221 10226 10230 10233 10237 10242 10247 10250 10255 10260 10263 10265 10268 10272 10277 10280 10285 10290 10295 10298 10300 10302 10304 10306 10309 10312 10316 10320 10324 10327 10330
10192 10189 10185 10182 10180 10177 10175 10172 10170 10169 10166 10164 10162 10160 10159 10157 10155 10154 10152 10152 10151 10151 10150 10151 10152 10152 10152 10152 10154 10155 10156 10157 10159 10160 10162 10162 10163 10164 10165 10167 10169 10172 10175 10177 10180 10182 10185 10189 10192 10195 10199 10202 10203 10204 10207 10211 10216 10220 10223 10227 10231 10236 10240 10245 10249 10252 10256 10260 10265 10269 10273 10279 10283 10286 10289 10292 10295 10298 10299 10301 10305 10309 10314 10317 10320 10324
10182 10179 10175 10173 10170 10167 10165 10163 10160 10159 10157 10155 10152 10150 10149 10147 10145 10144 10143 10142 10142 10142 10141 10141 10142 10142 10142 10142 10143 10144 10145 10147 10149 10150 10152 10152 10153 10154 10155 10157 10159 10161 10164 10167 10169 10172 10175 10178 10182 10185 10189 10191 10193 10194 10197 10201 10205 10209 10212 10217 10221 10226 10230 10234 10238 10243 10248 10253 10257 10260 10265 10270 10274 10277 10280 10285 10289 10291 10292 10294 10297 10302 10307 10310 10314 10318
10173 10169 10166 10164 10160 10158 10155 10154 10151 10149 10147 10145 10144 10142 10140 10138 10137 10135 10134 10133 10132 10132 10132 10132 10132 10132 10132 10133 10134 10135 10136 10137 10139 10140 10142 10143 10144 10145 10145 10147 10149 10151 10154 10156 10159 10162 10165 10168 10171 10175 10178 10181 10184 10185 10188 10191 10195 10199 10202 10207 10212 10216 10219 10224 10229 10234 10239 10243 10247 10251 10256 10260 10264 10269 10273 10278 10280 10282 10283 10285 10289 10294 10299 10304 10307 10311
10164 10160 10157 10154 10152 10149 10147 10144 10142 10140 10139 10137 10135 10133 10131 10129 10128 10126 10125 10124 10124 10123 10123 10123 10123 10123 10124 10124 10124 10125 10126 10127 10129 10130 10132 10134 10135 10136 10137 10137 10139 10141 10143 10145 10149 10151 10154 10157 10161 10164 10168 10172 10174 10176 10179 10181 10185 10189 10193 10197 10202 10205 10209 10214 10219 10224 10228 10232 10237 10242 10246 10251 10255 10261 10267 10270 10272 10273 10275 10279 10283 10287 10292 10297 10301 10304
10155 10152 10149 10146 10143 10140 10138 10135 10134 10132 10130 10128 10126 10124 10122 10121 10119 10118 10117 10116 10115 10115 10114 10114 10114 10114 10114 10115 10115 10116 10117 10118 10120 10121 10122 10124 10126 10127 10128 10129 10130 10132 10134 10135 10138 10141 10144 10147 10150 10154 10158 10161 10164 10167 10169 10171 10175 10179 10183 10187 10190 10195 10199 10204 10209 10214 10219 10223 10227 10232 10237 10242 10247 10252 10258 10262 10264 10266 10269 10272 10275 10280 10285 10290 10294 10298